Weather in Wisconsin Dells

United States     43°37′38″N   89°46′24″W
temp.,
°C
wind,
m/s
gust,
m/s
humid.,
%
clouds,
%
prec.,
mm/h
press.,
hPa
HPBL,
m
18 may, tue
tue1801:00+12se311960 0.0 1023282
04:00+11ese389817 0.0 1022202
07:00+12e389525 0.0 1023226
10:00+19se687637 0.0 1022742
13:00+21se71165100 0.5 10201502
16:00+17sse61388100 1.2 10201043
19:00+15se61396100 6.1 1019736
22:00+15sse71395100 0.6 1019947
19 may, wed
wed1901:00+15sse61492100 0.6 1019792
04:00+15sse51298100 0.3 1017743
07:00+16sse41197100 0.3 1019585
10:00+16sse41095100 0.0 1019590
13:00+19s5988100 0.1 1019777
16:00+19s41092100 0.3 1019741
19:00+20sse41089100 0.3 1018807
22:00+18sse41296100 0.2 1018459
20 may, thu
thu2001:00+18s51393100 0.2 1018770
04:00+17s61396100 0.5 1018888
07:00+16s61395100 0.6 1020721
10:00+20ssw61085100 0.0 1020728
13:00+22s71074100 0.1 10201175
16:00+23s71078100 0.4 1019985
19:00+19ssw61387100 0.7 1020756
22:00+17sse31198100 0.0 1022357
21 may, fri
fri2101:00+18s31198100 0.5 1021387
04:00+18s41397100 0.0 1021540
07:00+18s41496100 0.2 1022751
10:00+19s61395100 3.8 1022756
13:00+20ssw51194100 4.2 1022771
16:00+21sw588872 0.3 1021709
19:00+22sw48880 0.8 1021616
22:00+19ssw38975 0.1 1022184
22 may, sat
sat2201:00+18sw399818 0.2 1023248
04:00+18wsw289936 0.5 1023229
07:00+19wsw279730 0.5 1024226
10:00+24wsw458368 0.2 1023646
13:00+27sw566737 0.4 10211263
16:00+26wsw6770100 0.1 10191229
19:00+25wsw4981100 0.3 1018501
22:00+21sw311965 0.2 1018281